Total_Precipitation_Accumulation
0.30 0.31 0.28 0.27 0.21 0.20 0.20 0.23 0.46 0.75 1.05 1.44 1.64 1.55 1.51 1.44 1.19 0.93 0.82 0.79 0.78 0.74 0.66 0.59 0.55 0.53 0.50 0.49 0.47 0.47 0.49 0.51 0.48 0.43 0.40 0.40 0.41 0.44 0.43 0.38 0.35 0.33 0.30 0.27
0.25 0.21 0.25 0.29 0.30 0.32 0.36 0.40 0.52 0.84 1.30 1.74 1.82 1.66 1.57 1.49 1.32 1.15 1.06 1.00 0.94 0.86 0.78 0.74 0.71 0.67 0.63 0.60 0.58 0.57 0.58 0.60 0.61 0.59 0.56 0.52 0.47 0.42 0.37 0.31 0.25 0.20 0.15 0.15
0.39 0.24 0.34 0.59 0.49 0.42 0.48 0.55 0.70 1.08 1.38 1.51 1.58 1.62 1.64 1.66 1.56 1.36 1.24 1.14 1.10 1.06 0.98 0.92 0.87 0.83 0.79 0.74 0.69 0.68 0.68 0.67 0.66 0.63 0.57 0.48 0.37 0.30 0.26 0.23 0.20 0.17 0.13 0.10
0.39 0.43 0.80 0.77 0.44 0.43 0.55 0.64 0.74 0.90 1.05 1.15 1.17 1.24 1.29 1.36 1.39 1.31 1.20 1.14 1.11 1.09 1.08 1.04 0.96 0.88 0.84 0.79 0.74 0.70 0.70 0.66 0.61 0.53 0.45 0.36 0.29 0.25 0.22 0.21 0.22 0.20 0.17 0.14
0.41 0.60 0.77 0.73 0.42 0.38 0.68 1.08 0.89 0.84 0.79 0.73 0.70 0.77 1.02 1.15 1.15 1.19 1.23 1.25 1.19 1.12 1.03 1.00 0.95 0.88 0.85 0.84 0.79 0.70 0.64 0.55 0.46 0.38 0.33 0.27 0.24 0.22 0.21 0.20 0.18 0.17 0.16 0.17
0.45 0.70 0.95 0.93 0.40 0.27 0.56 1.30 1.08 0.89 0.79 0.73 0.79 0.91 0.96 0.95 0.94 1.00 1.06 1.06 0.99 0.90 0.81 0.78 0.79 0.76 0.70 0.67 0.62 0.54 0.43 0.35 0.31 0.30 0.28 0.26 0.23 0.21 0.20 0.19 0.17 0.14 0.12 0.13
0.55 0.81 1.02 0.53 0.20 0.32 0.88 1.22 1.05 0.88 0.77 0.75 0.92 0.91 0.71 0.66 0.71 0.75 0.80 0.79 0.73 0.69 0.71 0.70 0.63 0.53 0.49 0.44 0.40 0.34 0.28 0.26 0.24 0.23 0.21 0.22 0.23 0.22 0.21 0.20 0.20 0.17 0.15 0.14
0.68 0.93 1.04 0.41 0.24 0.49 0.66 0.61 0.69 0.69 0.65 0.62 0.58 0.47 0.44 0.44 0.48 0.51 0.53 0.54 0.52 0.54 0.56 0.53 0.43 0.38 0.37 0.34 0.28 0.23 0.24 0.26 0.25 0.21 0.16 0.19 0.27 0.26 0.24 0.25 0.26 0.24 0.22 0.19
0.69 0.86 0.71 0.36 0.28 0.32 0.37 0.50 0.49 0.46 0.42 0.33 0.30 0.27 0.29 0.31 0.32 0.34 0.36 0.40 0.43 0.41 0.39 0.39 0.37 0.36 0.36 0.33 0.26 0.25 0.28 0.31 0.27 0.21 0.19 0.22 0.26 0.27 0.25 0.26 0.23 0.19 0.20 0.19
0.46 0.57 0.45 0.35 0.28 0.26 0.27 0.33 0.30 0.30 0.29 0.22 0.21 0.24 0.27 0.29 0.26 0.27 0.31 0.33 0.35 0.34 0.33 0.34 0.34 0.35 0.36 0.31 0.29 0.34 0.39 0.34 0.26 0.24 0.23 0.24 0.23 0.20 0.19 0.20 0.17 0.16 0.17 0.16
0.43 0.50 0.46 0.45 0.28 0.21 0.20 0.18 0.18 0.23 0.22 0.18 0.16 0.21 0.23 0.25 0.26 0.27 0.28 0.29 0.31 0.33 0.32 0.28 0.26 0.27 0.26 0.29 0.33 0.43 0.42 0.33 0.26 0.23 0.22 0.22 0.18 0.12 0.09 0.08 0.06 0.09 0.12 0.11
0.37 0.36 0.41 0.46 0.29 0.18 0.21 0.20 0.19 0.18 0.18 0.20 0.18 0.19 0.20 0.22 0.25 0.26 0.23 0.24 0.28 0.29 0.27 0.24 0.23 0.23 0.22 0.26 0.30 0.38 0.39 0.28 0.21 0.17 0.16 0.14 0.14 0.13 0.07 0.03 0.02 0.02 0.03 0.03
0.20 0.19 0.23 0.20 0.14 0.14 0.17 0.19 0.20 0.20 0.18 0.20 0.20 0.19 0.19 0.20 0.20 0.21 0.22 0.22 0.26 0.27 0.24 0.21 0.20 0.21 0.20 0.20 0.22 0.27 0.29 0.21 0.15 0.13 0.14 0.13 0.13 0.19 0.20 0.09 0.03 0.02 0.02 0.02
0.08 0.11 0.15 0.15 0.16 0.15 0.17 0.20 0.19 0.18 0.20 0.22 0.21 0.18 0.16 0.15 0.15 0.18 0.19 0.17 0.15 0.16 0.17 0.19 0.17 0.15 0.12 0.12 0.17 0.16 0.13 0.08 0.08 0.11 0.11 0.10 0.09 0.11 0.14 0.19 0.18 0.12 0.05 0.02
0.08 0.11 0.15 0.17 0.20 0.18 0.19 0.22 0.21 0.18 0.18 0.19 0.16 0.13 0.11 0.11 0.13 0.13 0.12 0.10 0.12 0.15 0.14 0.13 0.13 0.11 0.08 0.08 0.10 0.10 0.07 0.07 0.07 0.06 0.04 0.05 0.05 0.05 0.05 0.09 0.16 0.19 0.14 0.07
0.12 0.12 0.13 0.17 0.23 0.24 0.24 0.25 0.21 0.17 0.12 0.11 0.10 0.09 0.09 0.09 0.08 0.08 0.08 0.08 0.13 0.16 0.14 0.13 0.12 0.09 0.05 0.05 0.07 0.07 0.06 0.04 0.05 0.04 0.02 0.02 0.03 0.03 0.03 0.05 0.09 0.13 0.13 0.08
0.14 0.12 0.12 0.14 0.17 0.20 0.17 0.13 0.11 0.08 0.06 0.06 0.06 0.05 0.05 0.06 0.07 0.08 0.08 0.09 0.13 0.15 0.14 0.12 0.09 0.04 0.02 0.02 0.04 0.04 0.03 0.02 0.01 0.01 0.01 0.01 0.02 0.02 0.02 0.02 0.05 0.08 0.06 0.05
0.15 0.12 0.11 0.10 0.10 0.10 0.08 0.06 0.04 0.04 0.03 0.02 0.02 0.03 0.04 0.06 0.06 0.06 0.06 0.06 0.09 0.12 0.10 0.05 0.04 0.03 0.02 0.01 0.02 0.02 0.02 0.02 0.01 0.01 0.01 0.01 0.01 0.02 0.01 0.02 0.04 0.05 0.05 0.05
0.08 0.05 0.05 0.05 0.05 0.04 0.03 0.03 0.03 0.02 0.01 0.01 0.01 0.03 0.04 0.04 0.03 0.03 0.03 0.05 0.07 0.09 0.07 0.03 0.01 0.02 0.02 0.01 0.01 0.01 0.01 0.01 0.00 0.00 0.00 0.00 0.01 0.01 0.01 0.01 0.02 0.03 0.04 0.05
0.03 0.02 0.02 0.03 0.02 0.02 0.02 0.02 0.01 0.01 0.01 0.01 0.02 0.03 0.03 0.02 0.01 0.01 0.03 0.05 0.06 0.05 0.03 0.01 0.01 0.02 0.01 0.01 0.00 0.00 0.00 0.00 0.00 0.00 0.00 0.00 0.00 0.00 0.00 0.00 0.01 0.02 0.03 0.04
0.02 0.02 0.02 0.01 0.02 0.01 0.01 0.01 0.01 0.02 0.01 0.01 0.02 0.02 0.02 0.01 0.01 0.01 0.03 0.05 0.05 0.03 0.01 0.01 0.01 0.01 0.01 0.00 0.00 0.00 0.00 0.00 0.00 0.00 0.00 0.00 0.00 0.00 0.00 0.00 0.01 0.01 0.02 0.03
0.03 0.02 0.02 0.01 0.01 0.01 0.01 0.02 0.02 0.02 0.01 0.01 0.01 0.01 0.01 0.01 0.01 0.01 0.02 0.04 0.04 0.01 0.01 0.00 0.01 0.01 0.00 0.00 0.00 0.00 0.00 0.00 0.00 0.00 0.00 0.00 0.00 0.00 0.01 0.01 0.01 0.01 0.02 0.03
0.06 0.03 0.02 0.02 0.01 0.01 0.02 0.03 0.01 0.01 0.01 0.01 0.01 0.01 0.01 0.01 0.00 0.01 0.02 0.02 0.01 0.00 0.01 0.01 0.00 0.00 0.00 0.00 0.00 0.00 0.00 0.00 0.00 0.00 0.00 0.00 0.00 0.00 0.00 0.00 0.00 0.01 0.01 0.01
0.10 0.05 0.03 0.02 0.03 0.03 0.02 0.01 0.01 0.01 0.00 0.00 0.00 0.01 0.01 0.01 0.00 0.00 0.00 0.00 0.00 0.00 0.00 0.00 0.00 0.00 0.00 0.00 0.00 0.00 0.00 0.00 0.00 0.00 0.00 0.00 0.00 0.00 0.00 0.00 0.00 0.00 0.00 0.00
0.08 0.06 0.04 0.04 0.05 0.04 0.03 0.02 0.01 0.01 0.01 0.00 0.00 0.00 0.00 0.00 0.00 0.00 0.00 0.00 0.00 0.00 0.00 0.00 0.00 0.00 0.00 0.00 0.00 0.00 0.00 0.00 0.00 0.00 0.00 0.00 0.00 0.00 0.00 0.00 0.00 0.00 0.00 0.00
0.12 0.12 0.08 0.06 0.05 0.04 0.02 0.02 0.02 0.02 0.02 0.01 0.01 0.00 0.00 0.00 0.00 0.00 0.00 0.00 0.00 0.00 0.00 0.00 0.00 0.00 0.00 0.00 0.00 0.00 0.00 0.00 0.00 0.00 0.00 0.00 0.00 0.00 0.00 0.00 0.00 0.00 0.00 0.00
0.20 0.18 0.12 0.10 0.08 0.04 0.02 0.02 0.02 0.03 0.02 0.02 0.01 0.01 0.00 0.00 0.00 0.00 0.00 0.00 0.00 0.00 0.00 0.00 0.00 0.00 0.00 0.00 0.00 0.00 0.00 0.00 0.00 0.00 0.00 0.00 0.00 0.00 0.00 0.00 0.00 0.00 0.00 0.00